When you browse on this site, cookies collect data to enhance your experience and personalize the content and advertising you see.
Visit our Privacy Policy to learn more. By continuing to use the site, you agree to this use of cookies and data.
  • en France
  • Liste des pays
  • À 7 jours
  • Température de l'eau
  • Carte météo
  • Widgets météo
  • user-avatar
    Se connecter

    Météo par heure à Trufanovo

    Ce jour, 19 Février, Mercredi

    Heure Température Précipitation Vent Pression Humidité
    00:00 0°C° 0 mm 3 m/s 739 mmHg 98%
    01:00 0°C° 0 mm 3 m/s 739 mmHg 98%
    02:00 0°C° 0 mm 3 m/s 739 mmHg 98%
    03:00 -1°C° 0 mm 4 m/s 739 mmHg 98%
    04:00 -1°C° 0 mm 4 m/s 739 mmHg 97%
    05:00 0°C° 0 mm 5 m/s 739 mmHg 97%
    06:00 -1°C° 0 mm 5 m/s 739 mmHg 96%
    07:00 -1°C° 0 mm 4 m/s 740 mmHg 95%
    08:00 -1°C° 0 mm 4 m/s 740 mmHg 94%
    09:00 -1°C° 0 mm 4 m/s 740 mmHg 94%
    10:00 -1°C° 0 mm 4 m/s 740 mmHg 95%
    11:00 0°C° 0 mm 4 m/s 740 mmHg 95%
    12:00 0°C° 0 mm 4 m/s 740 mmHg 95%
    13:00 0°C° 0 mm 4 m/s 740 mmHg 96%
    14:00 0°C° 0 mm 4 m/s 741 mmHg 96%
    15:00 0°C° 0 mm 3 m/s 741 mmHg 94%
    16:00 0°C° 0 mm 3 m/s 741 mmHg 93%
    17:00 0°C° 0 mm 3 m/s 741 mmHg 91%
    18:00 0°C° 0 mm 3 m/s 741 mmHg 91%
    19:00 0°C° 0 mm 3 m/s 741 mmHg 90%
    20:00 -1°C° 0 mm 3 m/s 741 mmHg 90%
    21:00 -1°C° 0 mm 3 m/s 742 mmHg 89%
    22:00 -1°C° 0 mm 3 m/s 742 mmHg 89%
    23:00 -1°C° 0 mm 3 m/s 742 mmHg 88%

    Demain, 20 Février, Jeudi

    Heure Température Précipitation Vent Pression Humidité
    00:00 -1°C° 0 mm 3 m/s 742 mmHg 89%
    01:00 -1°C° 0 mm 2 m/s 743 mmHg 89%
    02:00 -1°C° 0 mm 2 m/s 743 mmHg 90%
    03:00 -2°C° 0 mm 2 m/s 743 mmHg 91%
    04:00 -2°C° 0 mm 3 m/s 743 mmHg 92%
    05:00 -2°C° 0 mm 3 m/s 743 mmHg 93%
    06:00 -1°C° 0 mm 3 m/s 743 mmHg 93%
    07:00 -1°C° 0 mm 3 m/s 744 mmHg 93%
    08:00 -1°C° 0 mm 3 m/s 744 mmHg 92%
    09:00 0°C° 0 mm 3 m/s 744 mmHg 92%
    10:00 0°C° 0 mm 3 m/s 745 mmHg 91%
    11:00 +1°C° 0 mm 3 m/s 745 mmHg 90%
    12:00 +1°C° 0 mm 3 m/s 745 mmHg 90%
    13:00 +1°C° 0 mm 3 m/s 745 mmHg 90%
    14:00 +3°C° 0 mm 2 m/s 745 mmHg 90%
    15:00 +2°C° 0 mm 2 m/s 745 mmHg 91%
    16:00 +1°C° 0 mm 2 m/s 745 mmHg 92%
    17:00 -1°C° 0 mm 2 m/s 745 mmHg 93%
    18:00 -1°C° 0 mm 2 m/s 746 mmHg 93%
    19:00 -1°C° 0 mm 2 m/s 746 mmHg 93%
    20:00 -1°C° 0 mm 2 m/s 747 mmHg 93%
    21:00 -1°C° 0 mm 2 m/s 747 mmHg 93%
    22:00 -2°C° 0 mm 2 m/s 747 mmHg 93%
    23:00 -2°C° 0 mm 2 m/s 747 mmHg 93%

    Après-demain, 21 Février, Vendredi

    Heure Température Précipitation Vent Pression Humidité
    00:00 -2°C° 0 mm 2 m/s 747 mmHg 93%
    01:00 -2°C° 0 mm 2 m/s 747 mmHg 93%
    02:00 -2°C° 0 mm 2 m/s 747 mmHg 93%
    03:00 -2°C° 0 mm 2 m/s 747 mmHg 93%
    04:00 -2°C° 0 mm 2 m/s 747 mmHg 94%
    05:00 -2°C° 0 mm 2 m/s 747 mmHg 94%
    06:00 -2°C° 0 mm 2 m/s 747 mmHg 94%
    07:00 -2°C° 0 mm 2 m/s 747 mmHg 93%
    08:00 -2°C° 0 mm 2 m/s 747 mmHg 93%
    15:00 +1°C° 0 mm 3 m/s 747 mmHg 85%
    16:00 +1°C° 0 mm 2 m/s 746 mmHg 87%
    17:00 -1°C° 0 mm 2 m/s 746 mmHg 90%
    18:00 -1°C° 0 mm 2 m/s 747 mmHg 90%
    19:00 -2°C° 0 mm 2 m/s 747 mmHg 91%
    20:00 -2°C° 0 mm 2 m/s 747 mmHg 91%
    21:00 -2°C° 0 mm 2 m/s 747 mmHg 91%
    22:00 -2°C° 0 mm 2 m/s 748 mmHg 92%
    23:00 -2°C° 0 mm 2 m/s 748 mmHg 92%

    22 Février, Samedi

    Heure Température Précipitation Vent Pression Humidité
    00:00 -2°C° 0 mm 2 m/s 748 mmHg 92%
    01:00 -2°C° 0 mm 2 m/s 748 mmHg 92%
    02:00 -2°C° 0 mm 2 m/s 748 mmHg 93%
    03:00 -3°C° 0 mm 2 m/s 748 mmHg 93%
    04:00 -3°C° 0 mm 2 m/s 748 mmHg 93%
    05:00 -3°C° 0 mm 2 m/s 748 mmHg 93%
    06:00 -3°C° 0 mm 2 m/s 748 mmHg 91%
    07:00 -3°C° 0 mm 2 m/s 748 mmHg 90%
    08:00 -3°C° 0 mm 2 m/s 749 mmHg 89%
    09:00 -2°C° 0 mm 3 m/s 749 mmHg 84%
    10:00 -1°C° 0 mm 3 m/s 749 mmHg 79%
    11:00 -1°C° 0 mm 3 m/s 749 mmHg 74%
    12:00 -2°C° 0 mm 4 m/s 748 mmHg 72%
    13:00 -1°C° 0 mm 4 m/s 748 mmHg 70%
    14:00 -1°C° 0 mm 4 m/s 748 mmHg 68%
    15:00 -2°C° 0 mm 4 m/s 747 mmHg 71%
    16:00 -2°C° 0 mm 4 m/s 747 mmHg 74%
    17:00 -2°C° 0 mm 3 m/s 746 mmHg 78%
    18:00 -3°C° 0 mm 4 m/s 746 mmHg 78%
    19:00 -4°C° 0 mm 5 m/s 746 mmHg 78%
    20:00 -4°C° 0 mm 5 m/s 745 mmHg 79%
    21:00 -4°C° 0 mm 6 m/s 745 mmHg 79%
    22:00 -4°C° 0 mm 6 m/s 744 mmHg 79%
    23:00 -4°C° 0 mm 6 m/s 743 mmHg 79%

    23 Février, Dimanche

    Heure Température Précipitation Vent Pression Humidité
    00:00 -4°C° 0 mm 7 m/s 742 mmHg 81%
    01:00 -4°C° 0 mm 7 m/s 741 mmHg 82%
    02:00 -4°C° 0 mm 8 m/s 740 mmHg 83%
    03:00 -4°C° 0.1 mm 8 m/s 738 mmHg 86%
    04:00 -4°C° 0.1 mm 9 m/s 737 mmHg 89%
    05:00 -4°C° 0.1 mm 10 m/s 736 mmHg 92%
    06:00 -4°C° 0.7 mm 10 m/s 735 mmHg 92%
    07:00 -4°C° 0.7 mm 10 m/s 734 mmHg 91%
    08:00 -4°C° 0.7 mm 10 m/s 733 mmHg 91%
    09:00 -3°C° 0.6 mm 9 m/s 732 mmHg 93%
    10:00 -3°C° 0.6 mm 9 m/s 732 mmHg 95%
    11:00 -2°C° 0.6 mm 8 m/s 731 mmHg 97%
    12:00 -1°C° 0.3 mm 7 m/s 731 mmHg 89%
    13:00 -1°C° 0.3 mm 7 m/s 730 mmHg 82%
    14:00 0°C° 0.3 mm 7 m/s 730 mmHg 75%
    15:00 -1°C° 0.1 mm 6 m/s 730 mmHg 76%
    16:00 -1°C° 0.1 mm 5 m/s 730 mmHg 76%
    17:00 -1°C° 0.1 mm 4 m/s 730 mmHg 76%
    18:00 -2°C° 0 mm 4 m/s 730 mmHg 78%
    19:00 -2°C° 0 mm 4 m/s 731 mmHg 80%
    20:00 -2°C° 0 mm 4 m/s 731 mmHg 82%
    21:00 -2°C° 0 mm 4 m/s 731 mmHg 83%
    22:00 -3°C° 0 mm 4 m/s 731 mmHg 84%
    23:00 -4°C° 0 mm 5 m/s 731 mmHg 85%

    24 Février, Lundi

    Heure Température Précipitation Vent Pression Humidité
    00:00 -3°C° 0 mm 4 m/s 730 mmHg 86%
    01:00 -3°C° 0 mm 4 m/s 730 mmHg 88%
    02:00 -3°C° 0 mm 4 m/s 730 mmHg 89%
    03:00 -3°C° 0 mm 4 m/s 730 mmHg 89%
    04:00 -4°C° 0 mm 4 m/s 730 mmHg 89%
    05:00 -4°C° 0 mm 3 m/s 729 mmHg 89%
    06:00 -4°C° 0 mm 3 m/s 729 mmHg 89%
    07:00 -4°C° 0 mm 3 m/s 729 mmHg 89%
    08:00 -4°C° 0 mm 3 m/s 729 mmHg 88%
    09:00 -2°C° 0 mm 2 m/s 728 mmHg 86%
    10:00 -1°C° 0 mm 2 m/s 728 mmHg 83%
    11:00 +1°C° 0 mm 1 m/s 728 mmHg 81%
    12:00 -1°C° 0 mm 2 m/s 727 mmHg 80%
    13:00 +1°C° 0 mm 2 m/s 727 mmHg 80%
    14:00 +1°C° 0 mm 2 m/s 727 mmHg 80%
    15:00 -1°C° 0 mm 2 m/s 727 mmHg 82%
    16:00 -1°C° 0 mm 2 m/s 727 mmHg 85%
    17:00 -2°C° 0 mm 2 m/s 727 mmHg 88%
    18:00 -2°C° 0 mm 2 m/s 728 mmHg 88%
    19:00 -2°C° 0 mm 3 m/s 728 mmHg 88%
    20:00 -2°C° 0 mm 3 m/s 729 mmHg 88%
    21:00 -2°C° 0 mm 3 m/s 729 mmHg 87%
    22:00 -3°C° 0 mm 4 m/s 730 mmHg 86%
    23:00 -3°C° 0 mm 4 m/s 730 mmHg 85%
    Voir plus